Time,TemperatureF,DewpointF,PressureIn,WindDirection,WindDirectionDegrees,WindSpeedMPH,WindSpeedGustMPH,Humidity,HourlyPrecipIn,Conditions,Clouds,dailyrainin,SoftwareType,DateUTC
2013-04-10 00:02:00,70.7,62.8,29.93,SE,138,3.5,3.5,76,0.00,CLR,FEW,0.00,WeatherDisplay:10.37,2013-04-10 05:02:00,
2013-04-10 00:07:00,71.1,62.8,29.92,South,180,4.6,4.6,75,0.00,CLR,FEW,0.00,WeatherDisplay:10.37,2013-04-10 05:07:00,
2013-04-10 00:12:00,71.5,62.8,29.92,SE,146,4.6,4.6,74,0.00,CLR,FEW,0.00,WeatherDisplay:10.37,2013-04-10 05:12:00,
2013-04-10 00:17:00,71.8,63.1,29.92,SE,132,4.6,4.6,74,0.00,CLR,FEW,0.00,WeatherDisplay:10.37,2013-04-10 05:17:00,
2013-04-10 00:22:00,71.8,62.7,29.92,South,185,1.1,1.1,73,0.00,CLR,FEW,0.00,WeatherDisplay:10.37,2013-04-10 05:22:00,
2013-04-10 00:27:00,71.8,63.1,29.92,SE,146,3.5,3.5,74,0.00,CLR,FEW,0.00,WeatherDisplay:10.37,2013-04-10 05:27:00,
2013-04-10 00:33:00,71.7,63.0,29.91,SSE,167,3.5,3.5,74,0.00,CLR,FEW,0.00,WeatherDisplay:10.37,2013-04-10 05:33:00,
2013-04-10 00:38:00,71.6,62.9,29.91,SSE,165,2.3,2.3,74,0.00,CLR,FEW,0.00,WeatherDisplay:10.37,2013-04-10 05:38:00,
2013-04-10 00:43:00,71.7,63.0,29.91,SSW,193,2.3,2.3,74,0.00,CLR,FEW,0.00,WeatherDisplay:10.37,2013-04-10 05:43:00,
2013-04-10 00:48:00,71.7,62.6,29.91,SSW,212,4.6,4.6,73,0.00,CLR,FEW,0.00,WeatherDisplay:10.37,2013-04-10 05:48:00,
2013-04-10 00:53:00,71.7,62.6,29.90,South,169,6.9,6.9,73,0.00,CLR,FEW,0.00,WeatherDisplay:10.37,2013-04-10 05:53:00,
2013-04-10 00:58:00,71.8,62.7,29.91,East,90,4.6,4.6,73,0.00,CLR,FEW,0.00,WeatherDisplay:10.37,2013-04-10 05:58:00,
2013-04-10 01:03:00,71.9,62.8,29.91,SW,221,9.2,9.2,73,0.00,CLR,FEW,0.00,WeatherDisplay:10.37,2013-04-10 06:03:00,
2013-04-10 01:08:00,72.1,62.6,29.91,SSW,202,6.9,6.9,72,0.00,CLR,FEW,0.00,WeatherDisplay:10.37,2013-04-10 06:08:00,
2013-04-10 01:13:00,72.0,62.5,29.91,SSW,205,4.6,4.6,72,0.00,CLR,FEW,0.00,WeatherDisplay:10.37,2013-04-10 06:13:00,
2013-04-10 01:18:00,72.1,62.6,29.92,South,190,4.3,4.3,72,0.00,CLR,FEW,0.00,WeatherDisplay:10.37,2013-04-10 06:18:00,
2013-04-10 01:23:00,72.0,62.5,29.92,West,270,5.8,5.8,72,0.00,CLR,FEW,0.00,WeatherDisplay:10.37,2013-04-10 06:23:00,
2013-04-10 01:28:00,72.1,62.6,29.92,SSE,153,8.1,8.1,72,0.00,CLR,FEW,0.00,WeatherDisplay:10.37,2013-04-10 06:28:00,
2013-04-10 01:33:00,72.0,62.5,29.92,SW,215,6.9,6.9,72,0.00,CLR,FEW,0.00,WeatherDisplay:10.37,2013-04-10 06:33:00,
2013-04-10 01:38:00,71.9,62.4,29.92,SSE,161,6.9,6.9,72,0.00,CLR,FEW,0.00,WeatherDisplay:10.37,2013-04-10 06:38:00,
2013-04-10 01:43:00,71.8,62.7,29.92,SW,226,9.2,9.2,73,0.00,CLR,FEW,0.00,WeatherDisplay:10.37,2013-04-10 06:43:00,
2013-04-10 01:48:00,71.7,62.6,29.92,SSW,198,3.2,3.2,73,0.00,CLR,FEW,0.00,WeatherDisplay:10.37,2013-04-10 06:48:00,
2013-04-10 01:53:00,71.7,62.6,29.92,SW,219,4.3,4.3,73,0.00,CLR,FEW,0.00,WeatherDisplay:10.37,2013-04-10 06:53:00,
2013-04-10 01:58:00,71.6,62.5,29.92,SE,128,8.1,8.1,73,0.00,CLR,FEW,0.00,WeatherDisplay:10.37,2013-04-10 06:58:00,
2013-04-10 02:03:00,71.5,62.4,29.92,South,169,6.9,6.9,73,0.00,CLR,FEW,0.00,WeatherDisplay:10.37,2013-04-10 07:03:00,
2013-04-10 02:08:00,71.5,62.4,29.92,South,183,2.3,2.3,73,0.00,CLR,FEW,0.00,WeatherDisplay:10.37,2013-04-10 07:08:00,
2013-04-10 02:13:00,71.3,62.6,29.92,South,182,2.3,2.3,74,0.00,CLR,FEW,0.00,WeatherDisplay:10.37,2013-04-10 07:13:00,
2013-04-10 02:18:00,71.1,62.4,29.91,South,188,2.3,2.3,74,0.00,CLR,FEW,0.00,WeatherDisplay:10.37,2013-04-10 07:18:00,
2013-04-10 02:23:00,71.0,62.7,29.91,SSE,168,2.3,2.3,75,0.00,CLR,FEW,0.00,WeatherDisplay:10.37,2013-04-10 07:23:00,
2013-04-10 02:28:00,71.0,62.7,29.91,South,184,3.5,3.5,75,0.00,CLR,FEW,0.00,WeatherDisplay:10.37,2013-04-10 07:28:00,
2013-04-10 02:33:00,70.9,62.6,29.91,SE,143,3.5,3.5,75,0.00,CLR,FEW,0.00,WeatherDisplay:10.37,2013-04-10 07:33:00,
2013-04-10 02:38:00,70.9,62.6,29.91,SSW,198,1.1,2.8,75,0.00,CLR,FEW,0.00,WeatherDisplay:10.37,2013-04-10 07:38:00,
2013-04-10 02:43:00,71.0,62.7,29.91,SSW,204,3.5,3.5,75,0.00,CLR,FEW,0.00,WeatherDisplay:10.37,2013-04-10 07:43:00,
2013-04-10 02:48:00,71.0,62.7,29.91,SW,234,3.5,3.5,75,0.00,CLR,FEW,0.00,WeatherDisplay:10.37,2013-04-10 07:48:00,
2013-04-10 02:53:00,70.9,62.6,29.91,SSW,196,2.3,2.3,75,0.00,CLR,FEW,0.00,WeatherDisplay:10.37,2013-04-10 07:53:00,
2013-04-10 02:58:00,70.9,63.0,29.91,SSE,166,4.6,4.6,76,0.00,CLR,FEW,0.00,WeatherDisplay:10.37,2013-04-10 07:58:00,
2013-04-10 03:03:00,70.8,62.9,29.90,South,177,6.9,6.9,76,0.00,CLR,FEW,0.00,WeatherDisplay:10.37,2013-04-10 08:03:00,
2013-04-10 03:08:00,70.9,63.0,29.90,SW,221,3.5,3.5,76,0.00,CLR,FEW,0.00,WeatherDisplay:10.37,2013-04-10 08:08:00,
2013-04-10 03:13:00,71.0,63.1,29.90,SSE,163,3.5,3.5,76,0.00,CLR,FEW,0.00,WeatherDisplay:10.37,2013-04-10 08:13:00,
2013-04-10 03:21:00,71.0,63.1,29.90,South,170,8.1,0.0,76,0.00,CLR,FEW,0.00,WeatherDisplay:10.37,2013-04-10 08:21:00,
2013-04-10 03:26:00,71.1,63.1,29.90,SSE,167,4.6,4.6,76,0.00,CLR,FEW,0.00,WeatherDisplay:10.37,2013-04-10 08:26:00,
2013-04-10 03:32:00,71.1,63.5,29.90,SW,234,5.8,5.8,77,0.00,CLR,FEW,0.00,WeatherDisplay:10.37,2013-04-10 08:32:00,
2013-04-10 03:37:00,71.1,63.5,29.90,WSW,237,4.6,4.6,77,0.00,CLR,FEW,0.00,WeatherDisplay:10.37,2013-04-10 08:37:00,
2013-04-10 03:42:00,71.0,63.4,29.90,SSE,157,4.6,4.6,77,0.00,CLR,FEW,0.00,WeatherDisplay:10.37,2013-04-10 08:42:00,
2013-04-10 03:47:00,71.0,63.4,29.91,SSW,193,6.9,6.9,77,0.00,CLR,FEW,0.00,WeatherDisplay:10.37,2013-04-10 08:47:00,
2013-04-10 03:52:00,71.1,63.5,29.91,SSW,213,4.6,4.6,77,0.00,CLR,FEW,0.00,WeatherDisplay:10.37,2013-04-10 08:52:00,
2013-04-10 03:57:00,71.2,63.6,29.91,WSW,255,2.3,0.0,77,0.00,CLR,FEW,0.00,WeatherDisplay:10.37,2013-04-10 08:57:00,
2013-04-10 04:02:00,71.2,63.6,29.91,SSW,207,1.1,1.1,77,0.00,CLR,FEW,0.00,WeatherDisplay:10.37,2013-04-10 09:02:00,
2013-04-10 04:07:00,71.1,63.5,29.91,South,185,3.5,3.5,77,0.00,CLR,FEW,0.00,WeatherDisplay:10.37,2013-04-10 09:07:00,
2013-04-10 04:12:00,71.0,63.8,29.91,SSE,160,9.2,9.2,78,0.00,CLR,FEW,0.00,WeatherDisplay:10.37,2013-04-10 09:12:00,
2013-04-10 04:17:00,71.1,63.5,29.91,SW,221,1.1,1.1,77,0.00,CLR,FEW,0.00,WeatherDisplay:10.37,2013-04-10 09:17:00,
2013-04-10 04:22:00,71.1,63.5,29.91,SSE,160,2.3,2.3,77,0.00,CLR,FEW,0.00,WeatherDisplay:10.37,2013-04-10 09:22:00,
2013-04-10 04:27:00,71.0,63.4,29.91,SSW,192,8.1,8.1,77,0.00,CLR,FEW,0.00,WeatherDisplay:10.37,2013-04-10 09:27:00,
2013-04-10 04:32:00,71.0,63.4,29.91,WNW,286,4.6,4.6,77,0.00,CLR,FEW,0.00,WeatherDisplay:10.37,2013-04-10 09:32:00,
2013-04-10 04:37:00,71.0,63.4,29.91,SW,228,5.8,5.8,77,0.00,CLR,FEW,0.00,WeatherDisplay:10.37,2013-04-10 09:37:00,
2013-04-10 04:42:00,70.9,63.3,29.91,SSW,194,4.6,4.9,77,0.00,CLR,FEW,0.00,WeatherDisplay:10.37,2013-04-10 09:42:00,
2013-04-10 04:47:00,70.9,63.3,29.92,South,189,5.8,5.8,77,0.00,CLR,FEW,0.00,WeatherDisplay:10.37,2013-04-10 09:47:00,
2013-04-10 04:52:00,70.7,63.5,29.92,South,187,5.8,5.8,78,0.00,CLR,FEW,0.00,WeatherDisplay:10.37,2013-04-10 09:52:00,
2013-04-10 04:57:00,70.6,63.4,29.92,SSW,201,8.1,8.1,78,0.00,CLR,FEW,0.00,WeatherDisplay:10.37,2013-04-10 09:57:00,
2013-04-10 05:02:00,70.5,63.3,29.92,WNW,286,8.1,8.1,78,0.00,CLR,FEW,0.00,WeatherDisplay:10.37,2013-04-10 10:02:00,
2013-04-10 05:07:00,70.4,63.2,29.92,SSW,201,3.5,3.5,78,0.00,CLR,FEW,0.00,WeatherDisplay:10.37,2013-04-10 10:07:00,
2013-04-10 05:12:00,70.3,63.1,29.92,SW,219,2.3,2.3,78,0.00,CLR,FEW,0.00,WeatherDisplay:10.37,2013-04-10 10:12:00,
2013-04-10 05:17:00,70.3,63.5,29.92,SW,216,4.3,4.3,79,0.00,CLR,FEW,0.00,WeatherDisplay:10.37,2013-04-10 10:17:00,
2013-04-10 05:22:00,70.2,63.4,29.92,SSW,200,2.3,2.3,79,0.00,CLR,FEW,0.00,WeatherDisplay:10.37,2013-04-10 10:22:00,
2013-04-10 05:27:00,70.2,63.4,29.93,SSW,200,5.8,5.8,79,0.00,CLR,FEW,0.00,WeatherDisplay:10.37,2013-04-10 10:27:00,
2013-04-10 05:32:00,70.2,63.4,29.92,South,178,2.3,2.3,79,0.00,CLR,FEW,0.00,WeatherDisplay:10.37,2013-04-10 10:32:00,
2013-04-10 05:38:00,70.2,63.4,29.93,WSW,240,4.6,4.6,79,0.00,CLR,FEW,0.00,WeatherDisplay:10.37,2013-04-10 10:38:00,
2013-04-10 05:42:00,70.2,63.4,29.93,WSW,252,3.5,3.5,79,0.00,CLR,FEW,0.00,WeatherDisplay:10.37,2013-04-10 10:42:00,
2013-04-10 05:48:00,70.1,63.3,29.93,South,182,1.1,1.1,79,0.00,CLR,FEW,0.00,WeatherDisplay:10.37,2013-04-10 10:48:00,
2013-04-10 05:53:00,70.0,63.2,29.93,SSW,197,1.1,0.0,79,0.00,CLR,FEW,0.00,WeatherDisplay:10.37,2013-04-10 10:53:00,
2013-04-10 05:58:00,70.0,63.2,29.92,South,177,1.1,1.1,79,0.00,CLR,FEW,0.00,WeatherDisplay:10.37,2013-04-10 10:58:00,
2013-04-10 06:03:00,69.9,63.1,29.93,SSE,166,0.0,0.0,79,0.00,CLR,FEW,0.00,WeatherDisplay:10.37,2013-04-10 11:03:00,
2013-04-10 06:08:00,69.8,63.3,29.93,SSW,201,5.8,5.8,80,0.00,CLR,FEW,0.00,WeatherDisplay:10.37,2013-04-10 11:08:00,
2013-04-10 06:13:00,69.8,63.3,29.93,SW,215,4.6,4.6,80,0.00,CLR,FEW,0.00,WeatherDisplay:10.37,2013-04-10 11:13:00,
2013-04-10 06:18:00,69.9,63.4,29.94,South,173,2.3,2.3,80,0.00,FEW,,0.00,WeatherDisplay:10.37,2013-04-10 11:18:00,
2013-04-10 06:23:00,69.8,63.3,29.94,South,184,1.1,1.1,80,0.00,FEW,,0.00,WeatherDisplay:10.37,2013-04-10 11:23:00,
2013-04-10 06:28:00,69.7,63.3,29.94,South,180,6.9,6.9,80,0.00,FEW,,0.00,WeatherDisplay:10.37,2013-04-10 11:28:00,
2013-04-10 06:33:00,69.7,63.3,29.95,SSE,167,6.9,6.9,80,0.00,FEW,,0.00,WeatherDisplay:10.37,2013-04-10 11:33:00,
2013-04-10 06:38:00,69.7,63.3,29.95,SW,216,4.6,4.6,80,0.00,FEW,,0.00,WeatherDisplay:10.37,2013-04-10 11:38:00,
2013-04-10 06:43:00,69.6,63.2,29.95,SSW,196,2.3,2.3,80,0.00,FEW,,0.00,WeatherDisplay:10.37,2013-04-10 11:43:00,
2013-04-10 06:48:00,69.5,63.1,29.95,SSW,209,1.1,1.1,80,0.00,FEW,,0.00,WeatherDisplay:10.37,2013-04-10 11:48:00,
2013-04-10 06:53:00,69.5,63.1,29.96,South,180,1.1,0.0,80,0.00,FEW,,0.00,WeatherDisplay:10.37,2013-04-10 11:53:00,
2013-04-10 06:58:00,69.5,63.1,29.96,SSE,155,1.1,1.1,80,0.00,FEW,,0.00,WeatherDisplay:10.37,2013-04-10 11:58:00,
2013-04-10 07:03:00,69.4,63.0,29.96,SE,140,2.3,2.3,80,0.00,OVC,FEW,0.00,WeatherDisplay:10.37,2013-04-10 12:03:00,
2013-04-10 07:08:00,69.4,63.0,29.96,SSE,165,2.3,2.3,80,0.00,OVC,FEW,0.00,WeatherDisplay:10.37,2013-04-10 12:08:00,
2013-04-10 07:13:00,69.4,63.0,29.96,SE,141,3.5,3.5,80,0.00,OVC,FEW,0.00,WeatherDisplay:10.37,2013-04-10 12:13:00,
2013-04-10 07:18:00,69.5,63.1,29.96,SE,143,2.3,2.3,80,0.00,OVC,FEW,0.00,WeatherDisplay:10.37,2013-04-10 12:18:00,
2013-04-10 07:23:00,69.5,63.1,29.96,ESE,111,2.3,2.3,80,0.00,OVC,FEW,0.00,WeatherDisplay:10.37,2013-04-10 12:23:00,
2013-04-10 07:28:00,69.5,62.7,29.96,SSE,160,6.9,6.9,79,0.00,OVC,FEW,0.00,WeatherDisplay:10.37,2013-04-10 12:28:00,
2013-04-10 07:33:00,69.5,62.7,29.96,SSW,196,3.5,3.5,79,0.00,OVC,FEW,0.00,WeatherDisplay:10.37,2013-04-10 12:33:00,
2013-04-10 07:38:00,69.6,62.8,29.96,SSW,196,3.5,3.5,79,0.00,OVC,FEW,0.00,WeatherDisplay:10.37,2013-04-10 12:38:00,
2013-04-10 07:43:00,69.7,62.5,29.96,SSE,156,8.1,8.1,78,0.00,OVC,FEW,0.00,WeatherDisplay:10.37,2013-04-10 12:43:00,
2013-04-10 07:48:00,69.8,62.6,29.96,SSW,202,2.3,2.3,78,0.00,OVC,FEW,0.00,WeatherDisplay:10.37,2013-04-10 12:48:00,
2013-04-10 07:53:00,69.9,62.7,29.96,SSW,194,6.9,6.9,78,0.00,OVC,FEW,0.00,WeatherDisplay:10.37,2013-04-10 12:53:00,
2013-04-10 07:58:00,69.9,62.4,29.96,SSW,203,4.6,4.6,77,0.00,OVC,FEW,0.00,WeatherDisplay:10.37,2013-04-10 12:58:00,
2013-04-10 08:03:00,70.1,62.6,29.96,ESE,122,4.6,4.6,77,0.00,BKN,FEW,0.00,WeatherDisplay:10.37,2013-04-10 13:03:00,
2013-04-10 08:08:00,70.3,62.4,29.96,SSE,156,6.9,6.9,76,0.00,BKN,FEW,0.00,WeatherDisplay:10.37,2013-04-10 13:08:00,
2013-04-10 08:13:00,70.4,62.5,29.97,South,191,5.8,5.8,76,0.00,BKN,FEW,0.00,WeatherDisplay:10.37,2013-04-10 13:13:00,
2013-04-10 08:18:00,70.6,62.3,29.96,SW,226,8.1,8.1,75,0.00,BKN,FEW,0.00,WeatherDisplay:10.37,2013-04-10 13:18:00,
2013-04-10 08:23:00,70.9,62.6,29.96,WSW,251,6.9,6.9,75,0.00,BKN,FEW,0.00,WeatherDisplay:10.37,2013-04-10 13:23:00,
2013-04-10 08:28:00,71.0,62.7,29.97,WSW,242,8.1,8.1,75,0.00,BKN,FEW,0.00,WeatherDisplay:10.37,2013-04-10 13:28:00,
2013-04-10 08:33:00,71.3,62.6,29.96,SSW,213,3.2,3.2,74,0.00,BKN,FEW,0.00,WeatherDisplay:10.37,2013-04-10 13:33:00,
2013-04-10 08:38:00,71.5,62.4,29.96,SSE,165,5.8,5.8,73,0.00,BKN,FEW,0.00,WeatherDisplay:10.37,2013-04-10 13:38:00,
2013-04-10 08:43:00,71.9,62.4,29.96,South,182,8.1,8.1,72,0.00,BKN,FEW,0.00,WeatherDisplay:10.37,2013-04-10 13:43:00,
2013-04-10 08:48:00,72.2,62.3,29.96,South,182,8.1,8.1,71,0.00,BKN,FEW,0.00,WeatherDisplay:10.37,2013-04-10 13:48:00,
2013-04-10 08:53:00,72.6,62.3,29.96,SSE,163,10.4,10.4,70,0.00,BKN,FEW,0.00,WeatherDisplay:10.37,2013-04-10 13:53:00,
2013-04-10 08:58:00,73.0,63.0,29.97,SSW,192,9.2,9.2,71,0.00,BKN,FEW,0.00,WeatherDisplay:10.37,2013-04-10 13:58:00,
2013-04-10 09:04:00,73.3,62.9,29.97,SSW,196,3.5,3.5,70,0.00,BKN,FEW,0.00,WeatherDisplay:10.37,2013-04-10 14:04:00,
2013-04-10 09:09:00,73.6,62.4,29.97,SSE,157,8.1,8.5,68,0.00,BKN,FEW,0.00,WeatherDisplay:10.37,2013-04-10 14:09:00,
2013-04-10 09:14:00,73.5,62.7,29.97,SSE,163,8.1,8.1,69,0.00,BKN,FEW,0.00,WeatherDisplay:10.37,2013-04-10 14:14:00,
2013-04-10 09:19:00,73.5,62.3,29.97,South,179,6.9,6.9,68,0.00,BKN,FEW,0.00,WeatherDisplay:10.37,2013-04-10 14:19:00,
2013-04-10 09:24:00,73.7,62.5,29.97,SSE,156,3.5,3.5,68,0.00,BKN,FEW,0.00,WeatherDisplay:10.37,2013-04-10 14:24:00,
2013-04-10 09:29:00,73.9,62.2,29.98,SE,132,11.5,11.5,67,0.00,BKN,FEW,0.00,WeatherDisplay:10.37,2013-04-10 14:29:00,
2013-04-10 09:34:00,73.9,62.7,29.98,SSE,150,8.1,8.1,68,0.00,BKN,FEW,0.00,WeatherDisplay:10.37,2013-04-10 14:34:00,
2013-04-10 09:39:00,73.9,62.2,29.98,West,280,6.9,6.9,67,0.00,BKN,FEW,0.00,WeatherDisplay:10.37,2013-04-10 14:39:00,
2013-04-10 09:44:00,73.8,61.7,29.98,SE,142,9.2,9.2,66,0.00,BKN,FEW,0.00,WeatherDisplay:10.37,2013-04-10 14:44:00,
2013-04-10 09:49:00,73.9,62.2,29.98,WNW,286,11.5,11.5,67,0.00,BKN,FEW,0.00,WeatherDisplay:10.37,2013-04-10 14:49:00,
2013-04-10 09:54:00,74.2,62.5,29.98,SSW,206,8.1,8.1,67,0.00,BKN,FEW,0.00,WeatherDisplay:10.37,2013-04-10 14:54:00,
2013-04-10 09:59:00,74.6,62.5,29.98,SSW,204,5.8,5.8,66,0.00,BKN,FEW,0.00,WeatherDisplay:10.37,2013-04-10 14:59:00,
2013-04-10 10:04:00,74.9,62.3,29.98,SSW,202,6.9,6.9,65,0.00,SCT,FEW,0.00,WeatherDisplay:10.37,2013-04-10 15:04:00,
2013-04-10 10:09:00,75.3,62.3,29.98,SW,219,8.1,8.1,64,0.00,SCT,FEW,0.00,WeatherDisplay:10.37,2013-04-10 15:09:00,
2013-04-10 10:14:00,75.8,62.8,29.98,South,187,2.3,2.3,64,0.00,SCT,FEW,0.00,WeatherDisplay:10.37,2013-04-10 15:14:00,
2013-04-10 10:19:00,76.4,63.3,29.98,SSW,197,5.4,5.4,64,0.00,SCT,FEW,0.00,WeatherDisplay:10.37,2013-04-10 15:19:00,
2013-04-10 10:24:00,76.7,62.2,29.99,SSW,192,11.5,11.5,61,0.00,SCT,FEW,0.00,WeatherDisplay:10.37,2013-04-10 15:24:00,
2013-04-10 10:29:00,76.4,62.4,29.99,SSW,194,9.2,9.2,62,0.00,SCT,FEW,0.00,WeatherDisplay:10.37,2013-04-10 15:29:00,
2013-04-10 10:34:00,76.2,62.2,29.99,SW,215,11.5,11.5,62,0.00,SCT,FEW,0.00,WeatherDisplay:10.37,2013-04-10 15:34:00,
2013-04-10 10:39:00,76.1,62.1,29.99,South,175,5.8,5.8,62,0.00,SCT,FEW,0.00,WeatherDisplay:10.37,2013-04-10 15:39:00,
2013-04-10 10:44:00,76.2,62.7,29.99,South,169,8.1,8.1,63,0.00,SCT,FEW,0.00,WeatherDisplay:10.37,2013-04-10 15:44:00,
2013-04-10 10:49:00,76.2,62.2,29.98,SW,224,10.4,10.4,62,0.00,SCT,FEW,0.00,WeatherDisplay:10.37,2013-04-10 15:49:00,
2013-04-10 10:54:00,76.2,62.2,29.99,West,265,8.1,8.1,62,0.00,SCT,FEW,0.00,WeatherDisplay:10.37,2013-04-10 15:54:00,
2013-04-10 10:59:00,76.1,62.1,29.98,South,174,5.8,5.8,62,0.00,SCT,FEW,0.00,WeatherDisplay:10.37,2013-04-10 15:59:00,
2013-04-10 11:04:00,76.1,62.1,29.98,SSW,211,9.2,9.2,62,0.00,BKN,FEW,0.00,WeatherDisplay:10.37,2013-04-10 16:04:00,
2013-04-10 11:09:00,76.1,62.6,29.98,SSW,209,6.9,6.9,63,0.00,BKN,FEW,0.00,WeatherDisplay:10.37,2013-04-10 16:09:00,
2013-04-10 11:14:00,76.0,62.0,29.98,South,177,8.1,8.1,62,0.00,BKN,FEW,0.00,WeatherDisplay:10.37,2013-04-10 16:14:00,
2013-04-10 11:19:00,75.8,62.8,29.98,SSE,151,8.1,8.1,64,0.00,BKN,FEW,0.00,WeatherDisplay:10.37,2013-04-10 16:19:00,
2013-04-10 11:24:00,75.6,62.6,29.99,WSW,257,8.1,8.1,64,0.00,BKN,FEW,0.00,WeatherDisplay:10.37,2013-04-10 16:24:00,
2013-04-10 11:29:00,75.5,62.0,29.98,SSW,197,8.1,8.1,63,0.00,BKN,FEW,0.00,WeatherDisplay:10.37,2013-04-10 16:29:00,
2013-04-10 11:34:00,75.6,62.6,29.98,SSE,155,9.2,9.2,64,0.00,BKN,FEW,0.00,WeatherDisplay:10.37,2013-04-10 16:34:00,
2013-04-10 11:39:00,75.5,62.5,29.98,SSE,168,8.1,8.1,64,0.00,BKN,FEW,0.00,WeatherDisplay:10.37,2013-04-10 16:39:00,
2013-04-10 11:44:00,75.5,62.5,29.98,South,185,8.1,8.1,64,0.00,BKN,FEW,0.00,WeatherDisplay:10.37,2013-04-10 16:44:00,
2013-04-10 11:49:00,75.5,62.5,29.98,SSW,193,9.2,9.2,64,0.00,BKN,FEW,0.00,WeatherDisplay:10.37,2013-04-10 16:49:00,
2013-04-10 11:54:00,75.6,62.1,29.98,SSW,202,8.1,8.1,63,0.00,BKN,FEW,0.00,WeatherDisplay:10.37,2013-04-10 16:54:00,
2013-04-10 11:59:00,75.8,62.8,29.98,SSE,160,8.1,8.1,64,0.00,BKN,FEW,0.00,WeatherDisplay:10.37,2013-04-10 16:59:00,
2013-04-10 12:04:00,76.3,63.2,29.97,SSE,164,6.9,6.9,64,0.00,-DZ,FEW,0.00,WeatherDisplay:10.37,2013-04-10 17:04:00,
2013-04-10 12:09:00,77.0,63.0,29.97,SSW,209,11.5,11.5,62,0.00,-DZ,FEW,0.00,WeatherDisplay:10.37,2013-04-10 17:09:00,
2013-04-10 12:14:00,78.0,63.5,29.97,SE,124,5.8,5.8,61,0.00,-DZ,FEW,0.00,WeatherDisplay:10.37,2013-04-10 17:14:00,
2013-04-10 12:19:00,78.7,63.2,29.96,South,170,9.2,9.2,59,0.00,-DZ,FEW,0.00,WeatherDisplay:10.37,2013-04-10 17:19:00,
2013-04-10 12:24:00,79.4,63.3,29.96,ESE,122,8.1,8.1,58,0.00,-DZ,FEW,0.00,WeatherDisplay:10.37,2013-04-10 17:24:00,
2013-04-10 12:29:00,80.1,64.5,29.96,SSE,155,9.2,9.2,59,0.00,-DZ,FEW,0.00,WeatherDisplay:10.37,2013-04-10 17:29:00,
2013-04-10 12:34:00,80.3,64.2,29.96,SSE,150,17.3,17.3,58,0.00,-DZ,FEW,0.00,WeatherDisplay:10.37,2013-04-10 17:34:00,
2013-04-10 12:39:00,80.7,63.5,29.95,SSE,148,8.1,8.1,56,0.00,BKN,FEW,0.00,WeatherDisplay:10.37,2013-04-10 17:39:00,
2013-04-10 12:44:00,80.0,62.9,29.96,SSW,204,11.5,11.5,56,0.00,BKN,FEW,0.00,WeatherDisplay:10.37,2013-04-10 17:44:00,
2013-04-10 12:49:00,79.3,63.2,29.95,SSW,196,15.0,15.0,58,0.00,BKN,FEW,0.00,WeatherDisplay:10.37,2013-04-10 17:49:00,
2013-04-10 12:54:00,79.0,63.0,29.95,South,186,15.0,15.0,58,0.00,BKN,FEW,0.00,WeatherDisplay:10.37,2013-04-10 17:54:00,
2013-04-10 12:59:00,78.8,63.3,29.95,SSE,157,5.8,5.8,59,0.00,BKN,FEW,0.00,WeatherDisplay:10.37,2013-04-10 17:59:00,
2013-04-10 13:04:00,78.9,63.4,29.95,ESE,106,9.2,9.2,59,0.00,BKN,FEW,0.00,WeatherDisplay:10.37,2013-04-10 18:04:00,
2013-04-10 13:09:00,79.3,63.7,29.95,South,188,12.7,12.7,59,0.00,BKN,FEW,0.00,WeatherDisplay:10.37,2013-04-10 18:09:00,
2013-04-10 13:14:00,79.9,63.8,29.94,ESE,121,8.1,8.1,58,0.00,BKN,FEW,0.00,WeatherDisplay:10.37,2013-04-10 18:14:00,
2013-04-10 13:19:00,80.8,64.6,29.94,East,90,10.4,10.4,58,0.00,BKN,FEW,0.00,WeatherDisplay:10.37,2013-04-10 18:19:00,
2013-04-10 13:24:00,81.2,64.0,29.94,South,184,12.7,12.7,56,0.00,BKN,FEW,0.00,WeatherDisplay:10.37,2013-04-10 18:24:00,
2013-04-10 13:29:00,81.1,63.9,29.93,SW,223,18.4,18.4,56,0.00,BKN,FEW,0.00,WeatherDisplay:10.37,2013-04-10 18:29:00,
2013-04-10 13:34:00,81.0,63.3,29.93,South,179,12.7,12.7,55,0.00,BKN,FEW,0.00,WeatherDisplay:10.37,2013-04-10 18:34:00,
2013-04-10 13:39:00,81.0,63.8,29.93,SSW,209,8.1,8.1,56,0.00,FEW,,0.00,WeatherDisplay:10.37,2013-04-10 18:39:00,
2013-04-10 13:44:00,81.6,63.9,29.93,SSE,167,11.5,11.5,55,0.00,FEW,,0.00,WeatherDisplay:10.37,2013-04-10 18:44:00,
2013-04-10 13:49:00,82.1,64.3,29.92,SE,144,8.1,8.1,55,0.00,FEW,,0.00,WeatherDisplay:10.37,2013-04-10 18:49:00,
2013-04-10 13:54:00,82.7,64.4,29.92,SW,216,9.2,9.2,54,0.00,FEW,,0.00,WeatherDisplay:10.37,2013-04-10 18:54:00,
2013-04-10 14:00:00,82.5,64.2,29.92,SSW,198,12.7,12.7,54,0.00,FEW,,0.00,WeatherDisplay:10.37,2013-04-10 19:00:00,
2013-04-10 14:04:00,82.3,63.5,29.92,South,186,5.8,5.8,53,0.00,FEW,,0.00,WeatherDisplay:10.37,2013-04-10 19:04:00,
2013-04-10 14:10:00,82.1,63.8,29.92,SE,127,9.2,9.2,54,0.00,FEW,,0.00,WeatherDisplay:10.37,2013-04-10 19:10:00,
2013-04-10 14:15:00,82.7,64.4,29.91,SSW,192,8.1,8.1,54,0.00,FEW,,0.00,WeatherDisplay:10.37,2013-04-10 19:15:00,
2013-04-10 14:20:00,83.5,64.0,29.90,SSW,198,18.4,18.4,52,0.00,FEW,,0.00,WeatherDisplay:10.37,2013-04-10 19:20:00,
2013-04-10 14:25:00,83.5,64.0,29.90,NNW,327,8.1,8.1,52,0.00,SCT,FEW,0.00,WeatherDisplay:10.37,2013-04-10 19:25:00,
2013-04-10 14:30:00,83.9,64.4,29.90,SW,214,12.7,12.7,52,0.00,SCT,FEW,0.00,WeatherDisplay:10.37,2013-04-10 19:30:00,
2013-04-10 14:35:00,83.9,64.4,29.89,WSW,237,6.9,6.9,52,0.00,SCT,FEW,0.00,WeatherDisplay:10.37,2013-04-10 19:35:00,
2013-04-10 14:40:00,83.8,64.3,29.89,ESE,104,9.2,9.2,52,0.00,SCT,FEW,0.00,WeatherDisplay:10.37,2013-04-10 19:40:00,
2013-04-10 14:45:00,83.8,64.3,29.88,SSE,155,8.1,8.1,52,0.00,SCT,FEW,0.00,WeatherDisplay:10.37,2013-04-10 19:45:00,
2013-04-10 14:50:00,84.1,64.6,29.88,SE,144,8.1,8.1,52,0.00,SCT,FEW,0.00,WeatherDisplay:10.37,2013-04-10 19:50:00,
2013-04-10 14:55:00,84.7,64.0,29.88,SW,221,8.1,8.1,50,0.00,SCT,FEW,0.00,WeatherDisplay:10.37,2013-04-10 19:55:00,
2013-04-10 15:00:00,85.0,64.3,29.87,SE,124,8.1,8.1,50,0.00,SCT,FEW,0.00,WeatherDisplay:10.37,2013-04-10 20:00:00,
2013-04-10 15:05:00,85.3,64.6,29.87,South,188,6.9,6.9,50,0.00,FEW,,0.00,WeatherDisplay:10.37,2013-04-10 20:05:00,
2013-04-10 15:10:00,85.3,64.0,29.86,SSE,161,8.1,8.1,49,0.00,FEW,,0.00,WeatherDisplay:10.37,2013-04-10 20:10:00,
2013-04-10 15:15:00,85.8,64.4,29.86,SSE,151,5.8,5.8,49,0.00,FEW,,0.00,WeatherDisplay:10.37,2013-04-10 20:15:00,
2013-04-10 15:20:00,86.2,64.2,29.86,SSW,198,10.4,10.4,48,0.00,FEW,,0.00,WeatherDisplay:10.37,2013-04-10 20:20:00,
2013-04-10 15:25:00,86.6,64.6,29.86,SE,132,10.7,10.7,48,0.00,FEW,,0.00,WeatherDisplay:10.37,2013-04-10 20:25:00,
2013-04-10 15:30:00,86.8,63.5,29.86,WNW,288,11.5,11.5,46,0.00,FEW,,0.00,WeatherDisplay:10.37,2013-04-10 20:30:00,
2013-04-10 15:35:00,86.3,63.1,29.85,SSW,208,8.1,8.1,46,0.00,FEW,,0.00,WeatherDisplay:10.37,2013-04-10 20:35:00,
2013-04-10 15:40:00,86.4,63.2,29.85,SW,232,13.8,13.8,46,0.00,FEW,,0.00,WeatherDisplay:10.37,2013-04-10 20:40:00,
2013-04-10 15:45:00,86.5,64.5,29.85,ESE,102,6.9,6.9,48,0.00,FEW,,0.00,WeatherDisplay:10.37,2013-04-10 20:45:00,
2013-04-10 15:50:00,86.6,63.4,29.84,SSW,195,8.1,8.1,46,0.00,FEW,,0.00,WeatherDisplay:10.37,2013-04-10 20:50:00,
2013-04-10 15:55:00,86.6,63.4,29.84,South,188,6.9,6.9,46,0.00,FEW,,0.00,WeatherDisplay:10.37,2013-04-10 20:55:00,
2013-04-10 16:00:00,86.8,64.2,29.84,East,98,6.9,6.9,47,0.00,FEW,,0.00,WeatherDisplay:10.37,2013-04-10 21:00:00,
2013-04-10 16:05:00,86.9,62.4,29.83,South,180,9.2,9.2,44,0.00,CLR,FEW,0.00,WeatherDisplay:10.37,2013-04-10 21:05:00,
2013-04-10 16:10:00,86.6,62.1,29.83,South,173,13.8,13.8,44,0.00,CLR,FEW,0.00,WeatherDisplay:10.37,2013-04-10 21:10:00,
2013-04-10 16:15:00,86.6,62.1,29.82,SSW,193,11.5,11.5,44,0.00,CLR,FEW,0.00,WeatherDisplay:10.37,2013-04-10 21:15:00,
2013-04-10 16:20:00,86.5,62.6,29.82,SSW,206,18.4,18.4,45,0.00,CLR,FEW,0.00,WeatherDisplay:10.37,2013-04-10 21:20:00,
2013-04-10 16:25:00,86.5,62.6,29.82,SSE,155,6.4,6.4,45,0.00,CLR,FEW,0.00,WeatherDisplay:10.37,2013-04-10 21:25:00,
2013-04-10 16:30:00,86.7,62.2,29.81,SSE,168,9.2,9.2,44,0.00,CLR,FEW,0.00,WeatherDisplay:10.37,2013-04-10 21:30:00,
2013-04-10 16:35:00,87.0,63.7,29.81,NW,308,5.8,5.8,46,0.00,CLR,FEW,0.00,WeatherDisplay:10.37,2013-04-10 21:35:00,
2013-04-10 16:40:00,87.2,63.3,29.81,South,186,10.4,10.4,45,0.00,CLR,FEW,0.00,WeatherDisplay:10.37,2013-04-10 21:40:00,
2013-04-10 16:45:00,87.2,62.0,29.81,SSW,209,15.0,15.0,43,0.00,CLR,FEW,0.00,WeatherDisplay:10.37,2013-04-10 21:45:00,
2013-04-10 16:50:00,86.9,62.4,29.81,South,170,4.6,4.6,44,0.00,CLR,FEW,0.00,WeatherDisplay:10.37,2013-04-10 21:50:00,
2013-04-10 16:55:00,87.1,62.5,29.80,WSW,252,8.1,8.1,44,0.00,CLR,FEW,0.00,WeatherDisplay:10.37,2013-04-10 21:55:00,
2013-04-10 17:00:00,86.5,61.3,29.80,SSW,206,10.4,10.4,43,0.00,CLR,FEW,0.00,WeatherDisplay:10.37,2013-04-10 22:00:00,
2013-04-10 17:05:00,85.7,61.9,29.80,SW,232,6.9,6.9,45,0.00,CLR,FEW,0.00,WeatherDisplay:10.37,2013-04-10 22:05:00,
2013-04-10 17:10:00,85.4,61.0,29.80,SW,221,8.1,8.1,44,0.00,CLR,FEW,0.00,WeatherDisplay:10.37,2013-04-10 22:10:00,
2013-04-10 17:15:00,85.2,60.8,29.80,SW,225,9.2,9.2,44,0.00,CLR,FEW,0.00,WeatherDisplay:10.37,2013-04-10 22:15:00,
2013-04-10 17:20:00,84.9,60.6,29.80,SSW,212,10.4,10.4,44,0.00,FEW,,0.00,WeatherDisplay:10.37,2013-04-10 22:20:00,
2013-04-10 17:25:00,84.8,61.7,29.80,South,180,3.2,3.2,46,0.00,FEW,,0.00,WeatherDisplay:10.37,2013-04-10 22:25:00,
2013-04-10 17:30:00,85.0,61.3,29.80,SW,229,11.5,11.5,45,0.00,FEW,,0.00,WeatherDisplay:10.37,2013-04-10 22:30:00,
2013-04-10 17:35:00,85.1,61.4,29.79,South,178,8.1,8.1,45,0.00,FEW,,0.00,WeatherDisplay:10.37,2013-04-10 22:35:00,
2013-04-10 17:40:00,85.2,61.5,29.78,SW,215,8.1,8.1,45,0.00,FEW,,0.00,WeatherDisplay:10.37,2013-04-10 22:40:00,
2013-04-10 17:45:00,85.3,61.6,29.78,WSW,238,6.9,6.9,45,0.00,FEW,,0.00,WeatherDisplay:10.37,2013-04-10 22:45:00,
2013-04-10 17:50:00,85.2,61.5,29.78,South,179,4.6,4.6,45,0.00,FEW,,0.00,WeatherDisplay:10.37,2013-04-10 22:50:00,
2013-04-10 17:55:00,85.0,61.9,29.78,SSW,213,3.5,3.5,46,0.00,FEW,,0.00,WeatherDisplay:10.37,2013-04-10 22:55:00,
2013-04-10 18:00:00,84.6,61.5,29.78,West,259,4.6,4.6,46,0.00,FEW,,0.00,WeatherDisplay:10.37,2013-04-10 23:00:00,
2013-04-10 18:05:00,84.2,61.2,29.78,SSW,204,2.3,2.3,46,0.00,FEW,,0.00,WeatherDisplay:10.37,2013-04-10 23:05:00,
2013-04-10 18:10:00,83.9,61.5,29.77,SSW,198,3.5,3.5,47,0.00,FEW,,0.00,WeatherDisplay:10.37,2013-04-10 23:10:00,
2013-04-10 18:15:00,83.7,61.3,29.76,SW,222,2.3,2.3,47,0.00,FEW,,0.00,WeatherDisplay:10.37,2013-04-10 23:15:00,
2013-04-10 18:20:00,83.4,61.7,29.76,WNW,285,4.6,4.6,48,0.00,CLR,FEW,0.00,WeatherDisplay:10.37,2013-04-10 23:20:00,
2013-04-10 18:25:00,83.1,61.4,29.75,SSW,196,5.8,5.8,48,0.00,CLR,FEW,0.00,WeatherDisplay:10.37,2013-04-10 23:25:00,
2013-04-10 18:30:00,82.9,61.8,29.74,South,191,4.6,4.6,49,0.00,CLR,FEW,0.00,WeatherDisplay:10.37,2013-04-10 23:30:00,
2013-04-10 18:36:00,82.7,61.6,29.74,SSW,211,6.9,6.9,49,0.00,CLR,FEW,0.00,WeatherDisplay:10.37,2013-04-10 23:36:00,
2013-04-10 18:41:00,82.5,61.4,29.74,SSW,213,2.3,2.3,49,0.00,CLR,FEW,0.00,WeatherDisplay:10.37,2013-04-10 23:41:00,
2013-04-10 18:46:00,82.3,61.2,29.74,SE,138,2.3,2.3,49,0.00,CLR,FEW,0.00,WeatherDisplay:10.37,2013-04-10 23:46:00,
2013-04-10 18:51:00,82.1,61.6,29.74,SW,229,5.8,5.8,50,0.00,CLR,FEW,0.00,WeatherDisplay:10.37,2013-04-10 23:51:00,
2013-04-10 18:56:00,81.9,60.9,29.74,SSW,205,1.1,1.1,49,0.00,CLR,FEW,0.00,WeatherDisplay:10.37,2013-04-10 23:56:00,
2013-04-10 19:01:00,81.8,61.3,29.74,SW,217,3.5,3.5,50,0.00,BKN,FEW,0.00,WeatherDisplay:10.37,2013-04-11 00:01:00,
2013-04-10 19:06:00,81.6,61.2,29.74,South,187,3.5,3.5,50,0.00,BKN,FEW,0.00,WeatherDisplay:10.37,2013-04-11 00:06:00,
2013-04-10 19:11:00,81.4,61.0,29.73,SW,221,1.1,1.1,50,0.00,BKN,FEW,0.00,WeatherDisplay:10.37,2013-04-11 00:11:00,
2013-04-10 19:16:00,81.2,61.4,29.72,SSE,167,2.3,2.3,51,0.00,BKN,FEW,0.00,WeatherDisplay:10.37,2013-04-11 00:16:00,
2013-04-10 19:21:00,80.9,61.1,29.72,South,173,1.1,1.1,51,0.00,BKN,FEW,0.00,WeatherDisplay:10.37,2013-04-11 00:21:00,
2013-04-10 19:26:00,80.7,60.9,29.72,South,184,2.3,2.3,51,0.00,BKN,FEW,0.00,WeatherDisplay:10.37,2013-04-11 00:26:00,
2013-04-10 19:31:00,80.4,61.2,29.73,South,184,0.0,0.7,52,0.00,BKN,FEW,0.00,WeatherDisplay:10.37,2013-04-11 00:31:00,
2013-04-10 19:36:00,80.2,61.0,29.73,South,184,1.1,0.0,52,0.00,BKN,FEW,0.00,WeatherDisplay:10.37,2013-04-11 00:36:00,
2013-04-10 19:41:00,80.0,60.8,29.74,South,184,1.1,0.0,52,0.00,BKN,FEW,0.00,WeatherDisplay:10.37,2013-04-11 00:41:00,
2013-04-10 19:46:00,79.8,61.1,29.74,South,184,0.0,0.0,53,0.00,BKN,FEW,0.00,WeatherDisplay:10.37,2013-04-11 00:46:00,
2013-04-10 19:51:00,79.6,61.5,29.74,South,184,0.0,0.0,54,0.00,BKN,FEW,0.00,WeatherDisplay:10.37,2013-04-11 00:51:00,
2013-04-10 19:56:00,79.6,61.0,29.74,SE,130,2.3,2.3,53,0.00,BKN,FEW,0.00,WeatherDisplay:10.37,2013-04-11 00:56:00,
2013-04-10 20:02:00,79.4,61.8,29.74,SE,130,0.0,0.0,55,0.00,BKN,FEW,0.00,WeatherDisplay:10.37,2013-04-11 01:02:00,
2013-04-10 20:07:00,79.1,61.5,29.74,SE,130,1.1,1.1,55,0.00,BKN,FEW,0.00,WeatherDisplay:10.37,2013-04-11 01:07:00,
2013-04-10 20:12:00,78.9,60.8,29.73,South,179,2.3,2.3,54,0.00,BKN,FEW,0.00,WeatherDisplay:10.37,2013-04-11 01:12:00,
2013-04-10 20:17:00,78.9,60.8,29.72,SE,139,5.8,0.0,54,0.00,BKN,FEW,0.00,WeatherDisplay:10.37,2013-04-11 01:17:00,
2013-04-10 20:22:00,79.0,61.5,29.72,SE,138,0.0,0.3,55,0.00,BKN,FEW,0.00,WeatherDisplay:10.37,2013-04-11 01:22:00,
2013-04-10 20:27:00,79.0,60.9,29.72,South,178,4.6,4.6,54,0.00,BKN,FEW,0.00,WeatherDisplay:10.37,2013-04-11 01:27:00,
2013-04-10 20:32:00,79.0,60.9,29.72,NE,36,4.6,4.6,54,0.00,BKN,FEW,0.00,WeatherDisplay:10.37,2013-04-11 01:32:00,
2013-04-10 20:37:00,79.1,60.5,29.73,SSE,165,3.5,3.5,53,0.00,BKN,FEW,0.00,WeatherDisplay:10.37,2013-04-11 01:37:00,
2013-04-10 20:42:00,79.3,60.7,29.73,SSE,158,8.1,8.1,53,0.00,BKN,FEW,0.00,WeatherDisplay:10.37,2013-04-11 01:42:00,
2013-04-10 20:47:00,79.3,60.1,29.73,SSE,150,3.5,3.5,52,0.00,BKN,FEW,0.00,WeatherDisplay:10.37,2013-04-11 01:47:00,
2013-04-10 20:52:00,79.4,60.2,29.73,SSW,196,2.3,2.3,52,0.00,CLR,FEW,0.00,WeatherDisplay:10.37,2013-04-11 01:52:00,
2013-04-10 20:58:00,79.5,60.3,29.74,ESE,113,5.8,5.8,52,0.00,CLR,FEW,0.00,WeatherDisplay:10.37,2013-04-11 01:58:00,
2013-04-10 21:03:00,79.6,60.4,29.75,SW,231,3.5,3.5,52,0.00,CLR,FEW,0.00,WeatherDisplay:10.37,2013-04-11 02:03:00,
2013-04-10 21:08:00,79.6,59.9,29.75,SSW,192,1.1,1.1,51,0.00,CLR,FEW,0.00,WeatherDisplay:10.37,2013-04-11 02:08:00,
2013-04-10 21:13:00,79.6,59.9,29.76,South,179,3.5,4.1,51,0.00,CLR,FEW,0.00,WeatherDisplay:10.37,2013-04-11 02:13:00,
2013-04-10 21:18:00,79.7,60.0,29.75,SE,133,3.5,3.5,51,0.00,CLR,FEW,0.00,WeatherDisplay:10.37,2013-04-11 02:18:00,
2013-04-10 21:23:00,79.7,59.4,29.75,SE,131,4.6,4.6,50,0.00,CLR,FEW,0.00,WeatherDisplay:10.37,2013-04-11 02:23:00,
2013-04-10 21:28:00,79.5,59.2,29.75,SSE,155,6.9,6.9,50,0.00,CLR,FEW,0.00,WeatherDisplay:10.37,2013-04-11 02:28:00,
2013-04-10 21:33:00,79.4,59.1,29.76,South,170,5.8,5.8,50,0.00,CLR,FEW,0.00,WeatherDisplay:10.37,2013-04-11 02:33:00,
2013-04-10 21:38:00,79.4,59.1,29.76,SSW,198,9.2,9.2,50,0.00,CLR,FEW,0.00,WeatherDisplay:10.37,2013-04-11 02:38:00,
2013-04-10 21:43:00,79.5,59.2,29.75,SSW,206,6.9,6.9,50,0.00,CLR,FEW,0.00,WeatherDisplay:10.37,2013-04-11 02:43:00,
2013-04-10 21:48:00,79.4,59.1,29.75,South,178,4.6,4.6,50,0.00,CLR,FEW,0.00,WeatherDisplay:10.37,2013-04-11 02:48:00,
2013-04-10 21:53:00,79.2,59.0,29.75,South,188,9.2,9.2,50,0.00,CLR,FEW,0.00,WeatherDisplay:10.37,2013-04-11 02:53:00,
2013-04-10 21:58:00,79.1,58.9,29.74,South,178,2.3,2.3,50,0.00,CLR,FEW,0.00,WeatherDisplay:10.37,2013-04-11 02:58:00,
2013-04-10 22:03:00,79.0,58.2,29.74,SSE,161,6.9,6.9,49,0.00,CLR,FEW,0.00,WeatherDisplay:10.37,2013-04-11 03:03:00,
2013-04-10 22:08:00,78.9,58.1,29.75,SSE,147,8.1,8.1,49,0.00,CLR,FEW,0.00,WeatherDisplay:10.37,2013-04-11 03:08:00,
2013-04-10 22:13:00,78.9,58.7,29.75,SSW,208,5.8,5.8,50,0.00,CLR,FEW,0.00,WeatherDisplay:10.37,2013-04-11 03:13:00,
2013-04-10 22:18:00,78.7,58.5,29.75,SSW,195,2.3,2.3,50,0.00,CLR,FEW,0.00,WeatherDisplay:10.37,2013-04-11 03:18:00,
2013-04-10 22:23:00,78.6,58.4,29.75,SE,143,1.1,1.1,50,0.00,FEW,,0.00,WeatherDisplay:10.37,2013-04-11 03:23:00,
2013-04-10 22:28:00,78.5,58.3,29.75,South,178,1.1,1.1,50,0.00,FEW,,0.00,WeatherDisplay:10.37,2013-04-11 03:28:00,
2013-04-10 22:33:00,78.5,58.3,29.74,SSE,167,3.5,3.5,50,0.00,FEW,,0.00,WeatherDisplay:10.37,2013-04-11 03:33:00,
2013-04-10 22:38:00,78.4,58.2,29.75,SSE,168,1.1,1.1,50,0.00,FEW,,0.00,WeatherDisplay:10.37,2013-04-11 03:38:00,
2013-04-10 22:43:00,78.3,57.6,29.75,South,171,2.3,2.3,49,0.00,FEW,,0.00,WeatherDisplay:10.37,2013-04-11 03:43:00,
2013-04-10 22:48:00,78.2,58.0,29.75,South,174,4.6,4.6,50,0.00,FEW,,0.00,WeatherDisplay:10.37,2013-04-11 03:48:00,
2013-04-10 22:53:00,78.1,57.9,29.74,South,171,8.1,8.1,50,0.00,FEW,,0.00,WeatherDisplay:10.37,2013-04-11 03:53:00,
2013-04-10 22:58:00,78.0,57.9,29.74,SSW,199,8.6,8.6,50,0.00,FEW,,0.00,WeatherDisplay:10.37,2013-04-11 03:58:00,
2013-04-10 23:00:00,78.0,57.9,29.74,SE,146,8.1,8.1,50,0.00,FEW,,0.00,WeatherDisplay:10.37,2013-04-11 04:00:00,
2013-04-10 23:05:00,78.1,57.9,29.73,South,170,8.1,8.1,50,0.00,CLR,FEW,0.00,WeatherDisplay:10.37,2013-04-11 04:05:00,
2013-04-10 23:10:00,78.1,57.9,29.73,WSW,245,5.8,5.8,50,0.00,CLR,FEW,0.00,WeatherDisplay:10.37,2013-04-11 04:10:00,
2013-04-10 23:15:00,78.1,57.9,29.73,SW,219,6.9,6.9,50,0.00,CLR,FEW,0.00,WeatherDisplay:10.37,2013-04-11 04:15:00,
2013-04-10 23:20:00,78.1,57.9,29.73,SW,223,4.6,4.6,50,0.00,CLR,FEW,0.00,WeatherDisplay:10.37,2013-04-11 04:20:00,
2013-04-10 23:25:00,78.0,57.9,29.73,SE,133,12.7,12.7,50,0.00,CLR,FEW,0.00,WeatherDisplay:10.37,2013-04-11 04:25:00,
2013-04-10 23:30:00,78.0,57.9,29.73,SSW,200,3.5,3.5,50,0.00,CLR,FEW,0.00,WeatherDisplay:10.37,2013-04-11 04:30:00,
2013-04-10 23:35:00,78.0,58.4,29.72,SSE,156,6.9,6.9,51,0.00,CLR,FEW,0.00,WeatherDisplay:10.37,2013-04-11 04:35:00,
2013-04-10 23:40:00,77.9,58.3,29.73,SW,220,8.1,8.1,51,0.00,CLR,FEW,0.00,WeatherDisplay:10.37,2013-04-11 04:40:00,
2013-04-10 23:45:00,77.8,58.2,29.73,East,101,7.5,7.5,51,0.00,CLR,FEW,0.00,WeatherDisplay:10.37,2013-04-11 04:45:00,
2013-04-10 23:50:00,77.8,58.2,29.73,West,275,6.9,6.9,51,0.00,CLR,FEW,0.00,WeatherDisplay:10.37,2013-04-11 04:50:00,
2013-04-10 23:55:00,77.7,58.1,29.73,SE,140,6.9,6.9,51,0.00,CLR,FEW,0.00,WeatherDisplay:10.37,2013-04-11 04:55:00,